Regional Weather Roundup
Issued by NWS Bismarck, ND

Home | Current Version | Previous Version | Text Only | Print | Product List | Glossary On
Versions: 1 2 3 4 5 6 7 8 9 10 11 12 13 14 15 16 17 18 19 20 21 22 23 24 25 26 27 28 29 30 31 32 33 34 35 36 37 38 39 40 41 42 43 44 45 46 47 48 49 50
000
ASUS43 KBIS 010320
RWRBIS

NWR BROADCAST TEXT
NATIONAL WEATHER SERVICE BISMARCK ND
900 PM CST SAT FEB 28 2015

NOTE: "FAIR" INDICATES FEW OR NO CLOUDS BELOW 12,000 FEET WITH NO
SIGNIFICANT WEATHER AND/OR OBSTRUCTIONS TO VISIBILITY.


CITY           SKY/WX    TMP DP  RH WIND       PRES   REMARKS
WILLISTON      CLEAR      2  -4  76 VRB3      30.15S
MINOT          CLEAR      1  -4  79 SW8       30.13F WCI -13
MINOT AFB      CLEAR      0  -5  82 W13       30.13F WCI -18
BISMARCK       CLEAR     11   3  70 NW6       30.20S WCI   1
DICKINSON      CLEAR      5   0  79 W6        30.11S WCI  -6
GARRISON         N/A      2  -3  80 W6        30.15F WCI  -9
HETTINGER ARPT CLEAR      7   1  76 W5        30.14S WCI  -2
JAMESTOWN      CLEAR      4  -2  76 W10       30.16S WCI -11
BEACH          FAIR       7   3  85 W6        30.14S WCI  -3
CARRINGTON     FAIR       1   0  92 MISG      30.16S
CROSBY         FAIR       1  -2  85 SW12      30.12F WCI -15
HARVEY         FAIR       1   0  92 W8        30.16S WCI -12
HAZEN          FAIR       0  -4  85 S5        30.18S WCI -10
LINTON         CLOUDY     9   5  85 W5        30.19S WCI   0
MANDAN         FAIR       7   1  78 NW7       30.18S WCI  -5
OAKES            N/A      9   3  78 NW13      30.20R WCI  -7
RUGBY          FAIR       0  -4  85 W12       30.14S WCI -18
TIOGA          FAIR      -2  -4  92 W9        30.14S WCI -18
WATFORD CITY   FAIR       0  -4  85 SW9       30.12F WCI -16
$$

CITY           SKY/WX    TMP DP  RH WIND       PRES   REMARKS
GRAND FORKS    MOCLDY     9   3  77 W8        30.16S WCI  -3
GRAND FORKS AF CLOUDY     9   1  69 W13       30.16S WCI  -7
DEVILS LAKE    CLEAR      5  -2  72 W16       30.12F WCI -14
FARGO          CLOUDY    16   7  67 NW16      30.19R WCI   1
CANDO          FAIR       1   0  92 W16       30.12S WCI -18
CAVALIER       CLOUDY     9   1  72 W12       30.12S WCI  -6
GWINNER        CLEAR     14   5  67 NW17      30.20R WCI  -3
ROLLA          FAIR       5   0  78 W18       30.07S WCI -15
WALHALLA         N/A      7   0  72 W13G18    30.10F WCI  -9
$$

CITY           SKY/WX    TMP DP  RH WIND       PRES   REMARKS
ABERDEEN       PTCLDY    17   8  67 NW10      30.21R WCI   5
MOBRIDGE       PTCLDY     7   2  80 CALM      30.17S
BUFFALO          N/A     11   5  77 W8        30.07R WCI  -1
RAPID CITY     CLOUDY    16   9  74 N12       30.15R WCI   3
GLASGOW        MOCLDY    19  10  68 W10       30.14S WCI   7
SIDNEY         CLEAR     12   3  67 SW8       30.18S WCI   1
WOLF POINT     MOCLDY    19   9  65 W8        30.15F WCI   9
GLENDIVE       CLEAR      9   1  72 W6        30.15S WCI  -1
MILES CITY     CLEAR     15   8  73 W5        30.17R WCI   8
BAKER          CLEAR     10   3  73 W9        30.13S WCI  -3
$$

CITY           SKY/WX    TMP DP  RH WIND       PRES   REMARKS
BILLINGS       PTCLDY    19   8  62 NE3       30.12R
GREAT FALLS    CLEAR     14   8  77 SW10      30.16R WCI   1
REGINA         LGT SNOW   9   7  92 W14       30.05F WCI  -8
ESTEVAN        PTCLDY    -2  -8  78 SW10      30.09F WCI -19
$$



USA.gov is the U.S. government's official web portal to all federal, state and local government web resources and services.